Home > Time Zones > World Clock > Weather > U.S.A. > Bend > Past weeks

Flag for U.S.A. Weather past 2 weeks in Bend, Oregon, U.S.A.

Now
30 °F

Clear.


Feels Like: 30 °F
Forecast: 31 / 62 °F
Wind: No wind

Location: Roberts Field Airport

Current Time: Mar 6, 2015 at 7:06:19 AM

Latest Report: Mar 6, 2015 at 5:56 AM


Visibility: 10 mi

Pressure: 30.40 "Hg

Humidity: 69%

Dew point: 21 °F

Location of BendLocation

Historic Weather in Bend — Graph

°F

Bend temperature yesterday

Maximum temperature yesterday: 65 °F (at 2:56 PM)
Minimum temperature yesterday: 18 °F (at 5:56 AM)
Average temperature yesterday: 41 °F

Past Weeks' High & Low Weather Summary

 TemperatureHumidityPressure
High65 °F (Mar 5, 2:56 PM)100% (Feb 27, 7:56 AM)30.50 "Hg (Feb 27, 7:56 AM)
Low10 °F (Feb 23, 4:56 AM)10% (Feb 24, 12:56 PM)29.64 "Hg (Feb 27, 1:56 PM)
Average36 °F60%30.19 "Hg
* Reported Feb 19 5:56 AM — Mar 6 5:56 AM, Bend, Weather by CustomWeather, © 2015

Note: Actual official high and low records may vary slightly from our data, if they occured in-between our weather recording intervals... More about our weather records

Advertising

Bend weather history for previous 24 hours

 ConditionsComfort  
Time TempWeatherWind HumidityBarometerVisibility
5:56 AM
Fri, Mar 6
30 °FClear.No wind69%30.40 "Hg10 mi
4:56 AM29 °FClear.9 mph72%30.39 "Hg10 mi
3:56 AM29 °FClear.3 mph72%30.37 "Hg10 mi
2:56 AM29 °FClear.3 mph72%30.37 "Hg10 mi
1:56 AM27 °FClear.No wind78%30.39 "Hg10 mi
12:56 AM30 °FClear.6 mph72%30.38 "Hg10 mi
11:56 PM
Thu, Mar 5
36 °FClear.5 mph62%30.37 "Hg10 mi
10:56 PM37 °FClear.3 mph60%30.37 "Hg10 mi
9:56 PM41 °FClear.5 mph53%30.36 "Hg10 mi
8:56 PM40 °FClear.3 mph55%30.36 "Hg10 mi
7:56 PM45 °FClear.5 mph48%30.35 "Hg10 mi
6:56 PM48 °FClear.No wind43%30.36 "Hg10 mi
5:56 PM55 °FSunny.8 mph31%30.33 "Hg10 mi
4:56 PM61 °FSunny.6 mph20%30.31 "Hg10 mi
3:56 PM63 °FSunny.No wind17%30.29 "Hg10 mi
2:56 PM65 °FSunny.5 mph16%30.29 "Hg10 mi
1:56 PM63 °FSunny.5 mph17%30.29 "Hg10 mi
12:56 PM60 °FSunny.No wind18%30.32 "Hg10 mi
11:56 AM57 °FSunny.5 mph23%30.33 "Hg10 mi
10:56 AM53 °FSunny.7 mph27%30.34 "Hg10 mi
9:56 AM48 °FSunny.8 mph32%30.35 "Hg10 mi
8:56 AM41 °FSunny.3 mph41%30.37 "Hg10 mi
7:56 AM33 °FSunny.No wind61%30.37 "Hg10 mi
Weather by CustomWeather, © 2015

See weather overviewHow to use our weather pages